KF0EZB Weather Reports


Display with metric or nautical units.
time (UTC)temp
F
wind
direction
speed
MPH
gust
MPH
rain 1hr
in
rain 24hr
in
rain mn
in
humidity
%
barometer
mb
20260509095644 51 207 1.0 2.0 0.00 0.00 0.00 65 1010.5
20260509095141 52 232 1.0 2.0 0.00 0.00 0.00 64 1010.5
20260509094637 51 256 1.0 6.0 0.00 0.00 0.00 64 1010.3
20260509094135 52 177 0.0 2.0 0.00 0.00 0.00 64 1010.5
20260509093633 52 184 2.0 2.0 0.00 0.00 0.00 64 1010.6
20260509093130 52 176 1.0 1.0 0.00 0.00 0.00 64 1010.7
20260509092628 52 177 1.0 2.0 0.00 0.00 0.00 64 1010.3
20260509092126 51 188 0.0 3.0 0.00 0.00 0.00 64 1010.6
20260509091624 51 177 0.0 2.0 0.00 0.00 0.00 64 1010.6
20260509091120 51 176 0.0 2.0 0.00 0.00 0.00 65 1010.6
20260509090618 51 174 0.0 1.0 0.00 0.00 0.00 65 1010.4
20260509090115 51 173 1.0 1.0 0.00 0.00 0.00 65 1010.4
20260509085612 51 174 0.0 1.0 0.00 0.00 0.00 65 1010.2
20260509085108 51 174 1.0 1.0 0.00 0.00 0.00 64 1010.3
20260509084605 51 175 0.0 0.0 0.00 0.00 0.00 64 1010.6
20260509084102 52 175 0.0 0.0 0.00 0.00 0.00 64 1010.7
20260509083600 52 177 0.0 0.0 0.00 0.00 0.00 63 1010.4
20260509083056 52 180 0.0 0.0 0.00 0.00 0.00 63 1010.4
20260509082553 52 180 1.0 2.0 0.00 0.00 0.00 62 1010.5
20260509082050 52 180 0.0 0.0 0.00 0.00 0.00 62 1010.5
20260509081547 53 181 0.0 2.0 0.00 0.00 0.00 62 1010.5
20260509081044 53 195 0.0 2.0 0.00 0.00 0.00 61 1010.6
20260509080542 53 189 0.0 2.0 0.00 0.00 0.00 61 1010.7
20260509080040 53 183 1.0 2.0 0.00 0.00 0.00 62 1010.7
20260509075537 53 189 0.0 2.0 0.00 0.00 0.00 61 1010.8
20260509075035 53 194 1.0 2.0 0.00 0.00 0.00 61 1010.9
20260509074532 53 197 0.0 0.0 0.00 0.00 0.00 61 1010.8
20260509074028 53 196 0.0 1.0 0.00 0.00 0.00 61 1010.7
20260509073525 53 179 0.0 1.0 0.00 0.00 0.00 61 1010.9
20260509073021 53 182 2.0 3.0 0.00 0.00 0.00 62 1011.0
20260509072518 53 188 0.0 0.0 0.00 0.00 0.00 61 1011.0
20260509072015 53 183 1.0 2.0 0.00 0.00 0.00 61 1011.0
20260509071512 53 185 1.0 1.0 0.00 0.00 0.00 61 1011.0
20260509071009 54 227 1.0 2.0 0.00 0.00 0.00 60 1011.0
20260509070506 54 183 1.0 2.0 0.00 0.00 0.00 60 1010.9
20260509070002 54 196 1.0 2.0 0.00 0.00 0.00 59 1010.9
20260509065458 54 186 1.0 1.0 0.00 0.00 0.00 60 1011.0
20260509064954 53 188 1.0 2.0 0.00 0.00 0.00 61 1011.1
20260509064452 53 216 1.0 3.0 0.00 0.00 0.00 62 1010.9
20260509063950 53 181 0.0 2.0 0.00 0.00 0.00 62 1010.9
20260509063445 53 193 2.0 2.0 0.00 0.00 0.00 62 1010.9
20260509062942 53 201 1.0 3.0 0.00 0.00 0.00 62 1011.0
20260509062439 54 184 0.0 1.0 0.00 0.00 0.00 61 1011.0
20260509061937 54 190 1.0 1.0 0.00 0.00 0.00 60 1011.3
20260509061434 55 207 1.0 2.0 0.00 0.00 0.00 60 1011.0
20260509060931 55 264 2.0 3.0 0.00 0.00 0.00 59 1010.9
20260509060429 55 191 0.0 2.0 0.00 0.00 0.00 58 1010.8
20260509055924 55 239 3.0 3.0 0.00 0.00 0.00 59 1011.0
20260509055419 55 176 1.0 2.0 0.00 0.00 0.00 59 1010.8
20260509054916 54 166 1.0 1.0 0.00 0.00 0.00 60 1010.9
20260509054413 54 165 0.0 1.0 0.00 0.00 0.00 60 1010.8
20260509053911 54 165 0.0 1.0 0.00 0.00 0.00 60 1010.9
20260509053409 54 165 1.0 1.0 0.00 0.00 0.00 61 1010.7
20260509052906 55 165 0.0 1.0 0.00 0.00 0.00 60 1010.7
20260509052403 55 165 0.0 1.0 0.00 0.00 0.00 59 1010.7
20260509051901 55 167 0.0 1.0 0.00 0.00 0.00 58 1010.7
20260509051359 55 173 0.0 0.0 0.00 0.00 0.00 58 1010.7
20260509050856 55 170 0.0 0.0 0.00 0.00 0.00 57 1010.5
20260509050352 56 170 0.0 0.0 0.00 0.00 0.00 57 1010.8
20260509045849 56 171 0.0 0.0 0.00 0.00 0.00 57 1010.8
20260509045346 56 171 0.0 0.0 0.00 0.00 0.00 57 1010.6
20260509044843 56 171 0.0 0.0 0.00 0.00 0.00 56 1010.6
20260509044341 57 171 0.0 0.0 0.00 0.00 0.00 55 1010.6
20260509043837 57 171 0.0 0.0 0.00 0.00 0.00 54 1010.7
20260509043333 57 172 0.0 0.0 0.00 0.00 0.00 54 1011.0
20260509042829 58 172 0.0 0.0 0.00 0.00 0.00 53 1010.9
20260509042326 58 172 0.0 0.0 0.00 0.00 0.00 52 1010.7
20260509041823 58 173 0.0 0.0 0.00 0.00 0.00 52 1010.7
20260509041320 59 173 0.0 0.0 0.00 0.00 0.00 52 1010.9
20260509040818 59 173 0.0 0.0 0.00 0.00 0.00 51 1010.6
20260509040315 59 174 0.0 0.0 0.00 0.00 0.00 51 1010.7
20260509035812 59 177 1.0 1.0 0.00 0.00 0.00 51 1010.9
20260509035309 59 161 1.0 1.0 0.00 0.00 0.00 52 1010.7
20260509034805 59 157 0.0 0.0 0.00 0.00 0.00 52 1010.5
20260509034303 59 157 1.0 1.0 0.00 0.00 0.00 52 1010.8
20260509033800 59 157 0.0 0.0 0.00 0.00 0.00 52 1010.6
20260509033257 59 157 0.0 0.0 0.00 0.00 0.00 52 1010.5
20260509032754 59 157 0.0 0.0 0.00 0.00 0.00 52 1010.5
20260509032251 60 157 0.0 0.0 0.00 0.00 0.00 51 1010.5
20260509031748 60 157 0.0 0.0 0.00 0.00 0.00 50 1010.2
20260509031246 60 157 0.0 0.0 0.00 0.00 0.00 50 1010.3
20260509030744 60 157 0.0 0.0 0.00 0.00 0.00 51 1010.3
20260509030241 60 157 0.0 1.0 0.00 0.00 0.00 51 1010.4
20260509025738 60 157 0.0 0.0 0.00 0.00 0.00 53 1010.3
20260509025233 60 157 0.0 0.0 0.00 0.00 0.00 54 1010.0
20260509024728 60 157 0.0 0.0 0.00 0.00 0.00 53 1010.3
20260509024225 60 157 0.0 0.0 0.00 0.00 0.00 53 1010.3
20260509023722 60 157 0.0 0.0 0.00 0.00 0.00 54 1010.0
20260509023219 60 157 0.0 0.0 0.00 0.00 0.00 54 1009.8
20260509022715 60 157 0.0 0.0 0.00 0.00 0.00 54 1010.0
20260509022214 61 157 0.0 0.0 0.00 0.00 0.00 54 1010.0
20260509021710 61 157 0.0 0.0 0.00 0.00 0.00 53 1009.9
20260509021208 61 157 0.0 0.0 0.00 0.00 0.00 52 1010.0
20260509020705 62 157 0.0 0.0 0.00 0.00 0.00 51 1009.7
20260509020202 63 157 0.0 0.0 0.00 0.00 0.00 49 1009.6
20260509015701 63 157 0.0 1.0 0.00 0.00 0.00 48 1009.7
20260509015158 64 157 0.0 0.0 0.00 0.00 0.00 48 1009.6
20260509014654 64 157 0.0 0.0 0.00 0.00 0.00 45 1009.6
20260509014151 64 157 0.0 0.0 0.00 0.00 0.00 45 1009.8
20260509013648 65 157 0.0 0.0 0.00 0.00 0.00 43 1009.9
20260509013144 66 157 0.0 0.0 0.00 0.00 0.00 42 1009.6
20260509012640 67 157 0.0 0.0 0.00 0.00 0.00 40 1009.4
20260509012137 67 157 0.0 0.0 0.00 0.00 0.00 39 1009.7
20260509011635 68 157 0.0 0.0 0.00 0.00 0.00 39 1009.5
20260509011132 69 157 0.0 0.0 0.00 0.00 0.00 36 1009.6
20260509010630 70 158 0.0 0.0 0.00 0.00 0.00 36 1009.6
20260509010126 71 160 0.0 0.0 0.00 0.00 0.00 34 1009.5
20260509005624 72 166 0.0 1.0 0.00 0.00 0.00 33 1009.4
20260509005120 73 173 0.0 2.0 0.00 0.00 0.00 32 1009.7
20260509004616 73 249 0.0 3.0 0.00 0.00 0.00 32 1009.6
20260509004113 73 197 1.0 2.0 0.00 0.00 0.00 32 1009.8
20260509003612 74 208 1.0 5.0 0.00 0.00 0.00 31 1009.6
20260509003109 75 301 5.0 6.0 0.00 0.00 0.00 30 1009.7
20260509002606 76 238 3.0 7.0 0.00 0.00 0.00 30 1009.6
20260509002103 76 164 0.0 1.0 0.00 0.00 0.00 30 1009.7
20260509001601 76 173 1.0 2.0 0.00 0.00 0.00 29 1009.7
20260509001056 76 155 1.0 2.0 0.00 0.00 0.00 29 1009.8
20260509000555 76 146 0.0 3.0 0.00 0.00 0.00 29 1009.8
20260509000050 76 182 1.0 2.0 0.00 0.00 0.00 29 1009.8
20260508235548 76 137 2.0 3.0 0.00 0.00 0.00 29 1009.6
20260508235044 76 86 1.0 5.0 0.00 0.00 0.00 30 1009.8
20260508234542 76 113 2.0 7.0 0.00 0.00 0.00 30 1009.7
20260508234039 77 275 3.0 3.0 0.00 0.00 0.00 29 1009.5
20260508233538 77 305 4.0 7.0 0.00 0.00 0.00 29 1009.7
20260508233035 77 301 2.0 5.0 0.00 0.00 0.00 29 1009.4
20260508232532 77 184 1.0 2.0 0.00 0.00 0.00 29 1009.6
20260508232029 77 334 5.0 7.0 0.00 0.00 0.00 29 1009.6
20260508231527 77 175 1.0 2.0 0.00 0.00 0.00 30 1009.8
20260508231023 77 57 3.0 9.0 0.00 0.00 0.00 30 1009.5
20260508230520 76 284 3.0 7.0 0.00 0.00 0.00 30 1009.6
20260508230017 78 177 0.0 8.0 0.00 0.00 0.00 29 1009.6
20260508225514 77 37 1.0 6.0 0.00 0.00 0.00 30 1009.5
20260508225010 78 289 3.0 9.0 0.00 0.00 0.00 29 1009.4
20260508224509 77 75 3.0 7.0 0.00 0.00 0.00 31 1009.4
20260508224005 78 15 1.0 5.0 0.00 0.00 0.00 30 1009.4
20260508223504 76 255 3.0 7.0 0.00 0.00 0.00 30 1009.5
20260508223001 78 304 2.0 2.0 0.00 0.00 0.00 29 1009.5
20260508222458 77 152 1.0 7.0 0.00 0.00 0.00 31 1009.6
20260508221954 78 274 2.0 7.0 0.00 0.00 0.00 31 1009.5
20260508221450 78 216 2.0 7.0 0.00 0.00 0.00 30 1009.4
20260508220946 78 111 1.0 2.0 0.00 0.00 0.00 31 1009.3
20260508220443 77 45 3.0 5.0 0.00 0.00 0.00 31 1009.3
20260508215939 76 25 2.0 11.0 0.00 0.00 0.00 32 1009.4
20260508215437 79 40 3.0 5.0 0.00 0.00 0.00 30 1009.4
20260508214933 78 156 2.0 9.0 0.00 0.00 0.00 31 1009.4
20260508214431 79 145 0.0 2.0 0.00 0.00 0.00 31 1009.3
20260508213926 77 250 5.0 6.0 0.00 0.00 0.00 32 1009.3
20260508213424 77 107 2.0 5.0 0.00 0.00 0.00 33 1009.4
20260508212919 79 56 1.0 3.0 0.00 0.00 0.00 33 1009.6
20260508212417 77 69 5.0 9.0 0.00 0.00 0.00 33 1009.5
20260508211912 77 314 2.0 7.0 0.00 0.00 0.00 32 1009.6
20260508211408 77 272 3.0 5.0 0.00 0.00 0.00 33 1009.4
20260508210906 78 108 4.0 9.0 0.00 0.00 0.00 33 1009.5
20260508210402 77 95 1.0 5.0 0.00 0.00 0.00 32 1009.5
20260508205858 78 158 0.0 3.0 0.00 0.00 0.00 33 1009.5
20260508205355 77 122 4.0 7.0 0.00 0.00 0.00 33 1009.5
20260508204851 77 119 1.0 5.0 0.00 0.00 0.00 33 1009.5
20260508204349 78 123 1.0 6.0 0.00 0.00 0.00 34 1009.6
20260508203844 77 143 1.0 3.0 0.00 0.00 0.00 33 1009.4
20260508203341 77 60 4.0 6.0 0.00 0.00 0.00 32 1009.6
20260508202836 78 308 4.0 7.0 0.00 0.00 0.00 32 1009.7
20260508202334 75 168 0.0 1.0 0.00 0.00 0.00 35 1009.6
20260508201831 76 9 3.0 5.0 0.00 0.00 0.00 33 1009.6
20260508201328 77 171 1.0 3.0 0.00 0.00 0.00 33 1009.6
20260508200824 76 156 1.0 5.0 0.00 0.00 0.00 34 1009.8
20260508200321 76 120 1.0 2.0 0.00 0.00 0.00 34 1009.9
20260508195817 76 101 0.0 3.0 0.00 0.00 0.00 36 1009.7
20260508195314 75 117 0.0 3.0 0.00 0.00 0.00 36 1009.7
20260508194810 74 126 1.0 3.0 0.00 0.00 0.00 36 1009.9
20260508194308 75 106 0.0 6.0 0.00 0.00 0.00 36 1009.9
20260508193805 74 117 0.0 3.0 0.00 0.00 0.00 36 1009.9
20260508193301 75 308 3.0 6.0 0.00 0.00 0.00 34 1009.9
20260508192757 76 103 1.0 6.0 0.00 0.00 0.00 34 1009.9
20260508192254 77 62 2.0 8.0 0.00 0.00 0.00 32 1009.6
20260508191752 80 279 2.0 5.0 0.00 0.00 0.00 31 1009.8
20260508191249 79 202 1.0 5.0 0.00 0.00 0.00 33 1009.6
20260508190746 79 102 1.0 3.0 0.00 0.00 0.00 33 1009.3
20260508190242 78 313 5.0 9.0 0.00 0.00 0.00 34 1009.3
20260508185738 79 174 1.0 8.0 0.00 0.00 0.00 34 1009.5
20260508185236 77 233 3.0 8.0 0.00 0.00 0.00 34 1009.4
20260508184733 77 328 4.0 7.0 0.00 0.00 0.00 34 1009.3
20260508184230 77 278 6.0 7.0 0.00 0.00 0.00 33 1009.4
20260508183727 78 359 3.0 9.0 0.00 0.00 0.00 34 1009.5
20260508183223 78 124 1.0 2.0 0.00 0.00 0.00 34 1009.4
20260508182719 77 301 2.0 5.0 0.00 0.00 0.00 36 1009.3
20260508182216 77 84 3.0 5.0 0.00 0.00 0.00 35 1009.3
20260508181712 76 330 2.0 6.0 0.00 0.00 0.00 35 1009.5
20260508181209 76 283 3.0 6.0 0.00 0.00 0.00 36 1009.7
20260508180706 76 170 3.0 5.0 0.00 0.00 0.00 37 1009.5
20260508180203 76 344 2.0 5.0 0.00 0.00 0.00 36 1009.7
20260508175659 77 133 1.0 3.0 0.00 0.00 0.00 37 1009.4
20260508175156 77 323 1.0 6.0 0.00 0.00 0.00 35 1009.7
20260508174654 76 301 6.0 9.0 0.00 0.00 0.00 37 1009.5
20260508174150 77 300 6.0 11.0 0.00 0.00 0.00 36 1009.6
20260508173647 78 176 2.0 3.0 0.00 0.00 0.00 37 1009.7
20260508173143 77 110 1.0 10.0 0.00 0.00 0.00 38 1009.7
20260508172640 76 304 4.0 7.0 0.00 0.00 0.00 39 1009.8
20260508172137 75 172 0.0 9.0 0.00 0.00 0.00 43 1009.8
20260508171634 76 121 2.0 8.0 0.00 0.00 0.00 42 1009.8
20260508171130 73 305 2.0 8.0 0.00 0.00 0.00 42 1009.6
20260508170627 74 326 6.0 13.0 0.00 0.00 0.00 43 1009.6
20260508170125 74 348 1.0 9.0 0.00 0.00 0.00 43 1010.0
20260508165622 75 298 5.0 7.0 0.00 0.00 0.00 42 1009.7
20260508165119 75 295 2.0 11.0 0.00 0.00 0.00 42 1009.7
20260508164615 78 157 1.0 7.0 0.00 0.00 0.00 38 1009.9
20260508164112 78 196 3.0 5.0 0.00 0.00 0.00 39 1009.7
20260508163609 77 160 1.0 5.0 0.00 0.00 0.00 40 1009.7
20260508163106 76 188 1.0 5.0 0.00 0.00 0.00 40 1010.2
20260508162603 73 238 1.0 5.0 0.00 0.00 0.00 41 1009.9
20260508162100 73 324 5.0 11.0 0.00 0.00 0.00 42 1009.8
20260508161557 75 293 4.0 8.0 0.00 0.00 0.00 42 1009.7
20260508161054 74 251 2.0 8.0 0.00 0.00 0.00 44 1009.9
20260508160552 72 148 1.0 1.0 0.00 0.00 0.00 45 1009.6
20260508160049 72 290 3.0 5.0 0.00 0.00 0.00 46 1009.7
20260508155546 71 303 4.0 8.0 0.00 0.00 0.00 47 1009.7
20260508155043 70 288 4.0 8.0 0.00 0.00 0.00 49 1009.9
20260508154540 68 308 4.0 8.0 0.00 0.00 0.00 51 1010.0
20260508154037 68 311 6.0 7.0 0.00 0.00 0.00 52 1009.8
20260508153534 67 304 2.0 5.0 0.00 0.00 0.00 53 1009.8
20260508153030 66 294 6.0 8.0 0.00 0.00 0.00 53 1009.9
20260508152527 66 297 0.0 6.0 0.00 0.00 0.00 54 1009.9
20260508152023 66 307 4.0 5.0 0.00 0.00 0.00 54 1009.9
20260508151520 65 288 2.0 2.0 0.00 0.00 0.00 55 1009.7
20260508151016 65 321 0.0 6.0 0.00 0.00 0.00 54 1009.8
20260508150514 64 311 4.0 7.0 0.00 0.00 0.00 54 1009.6
20260508150009 65 210 1.0 2.0 0.00 0.00 0.00 55 1009.6
20260508145506 65 199 1.0 2.0 0.00 0.00 0.00 54 1009.8
20260508145002 64 230 2.0 2.0 0.00 0.00 0.00 54 1009.7
20260508144500 64 278 2.0 2.0 0.00 0.00 0.00 54 1009.4
20260508143958 63 314 3.0 8.0 0.00 0.00 0.00 55 1009.6
20260508143455 62 288 4.0 6.0 0.00 0.00 0.00 58 1009.7
20260508142951 62 269 3.0 3.0 0.00 0.00 0.00 58 1009.4
20260508142449 61 232 1.0 3.0 0.00 0.00 0.00 58 1009.1
20260508141944 61 226 1.0 3.0 0.00 0.00 0.00 58 1009.5
20260508141442 61 236 0.0 5.0 0.00 0.00 0.00 58 1009.5
20260508140939 61 273 1.0 3.0 0.00 0.00 0.00 58 1009.6
20260508140436 60 186 1.0 2.0 0.00 0.00 0.00 59 1009.6
20260508135931 60 186 1.0 2.0 0.00 0.00 0.00 58 1009.1
20260508135428 60 174 0.0 1.0 0.00 0.00 0.00 58 1009.2
20260508134925 59 212 0.0 2.0 0.00 0.00 0.00 61 1009.5
20260508134421 59 175 0.0 1.0 0.00 0.00 0.00 62 1009.3
20260508133918 58 200 1.0 2.0 0.00 0.00 0.00 62 1009.3
20260508133416 57 179 1.0 2.0 0.00 0.00 0.00 63 1009.4
20260508132913 57 167 1.0 1.0 0.00 0.00 0.00 63 1009.4
20260508132411 57 168 0.0 1.0 0.00 0.00 0.00 63 1009.2
20260508131907 57 170 0.0 1.0 0.00 0.00 0.00 63 1009.5
20260508131403 57 172 0.0 1.0 0.00 0.00 0.00 63 1009.3
20260508130900 57 173 0.0 2.0 0.00 0.00 0.00 62 1009.3
20260508130356 57 171 0.0 1.0 0.00 0.00 0.00 62 1009.4
20260508125852 57 173 0.0 1.0 0.00 0.00 0.00 62 1009.4
20260508125348 57 188 1.0 3.0 0.00 0.00 0.00 62 1009.2
20260508124846 56 221 0.0 2.0 0.00 0.00 0.00 62 1009.3
20260508124343 57 207 0.0 1.0 0.00 0.00 0.00 62 1009.2
20260508123842 57 167 0.0 0.0 0.00 0.00 0.00 62 1009.3
20260508123340 56 185 1.0 1.0 0.00 0.00 0.00 61 1009.1
20260508122836 56 168 1.0 1.0 0.00 0.00 0.00 62 1008.8
20260508122333 56 168 1.0 2.0 0.00 0.00 0.00 62 1008.5
20260508121830 56 168 0.0 1.0 0.00 0.00 0.00 62 1008.5
20260508121328 55 165 1.0 1.0 0.00 0.00 0.00 63 1008.6
20260508120826 55 173 1.0 1.0 0.00 0.00 0.00 62 1008.7
20260508120323 55 203 0.0 3.0 0.00 0.00 0.00 63 1008.8
20260508115821 55 169 0.0 1.0 0.00 0.00 0.00 63 1008.9
20260508115318 55 171 0.0 1.0 0.00 0.00 0.00 63 1009.1
20260508114814 55 183 2.0 2.0 0.00 0.00 0.00 62 1008.8
20260508114312 55 175 1.0 2.0 0.00 0.00 0.00 62 1009.0
20260508113808 55 169 0.0 1.0 0.00 0.00 0.00 61 1009.0
20260508113306 55 168 1.0 2.0 0.00 0.00 0.00 61 1009.1
20260508112802 55 170 1.0 1.0 0.00 0.00 0.00 61 1009.1
20260508112300 56 170 0.0 0.0 0.00 0.00 0.00 61 1009.2
20260508111755 56 176 0.0 0.0 0.00 0.00 0.00 60 1009.3
20260508111254 56 183 0.0 3.0 0.00 0.00 0.00 59 1009.0
20260508110751 57 190 1.0 2.0 0.00 0.00 0.00 58 1009.1
20260508110248 57 233 1.0 3.0 0.00 0.00 0.00 57 1009.2
20260508105748 57 278 3.0 5.0 0.00 0.00 0.00 57 1009.3
20260508105244 57 281 5.0 7.0 0.00 0.00 0.00 58 1009.3
20260508104742 57 294 5.0 7.0 0.00 0.00 0.00 58 1009.3
20260508104239 57 223 1.0 6.0 0.00 0.00 0.00 58 1009.4
20260508103736 58 289 5.0 6.0 0.00 0.00 0.00 57 1009.7
20260508103233 58 280 6.0 9.0 0.00 0.00 0.00 58 1009.3
20260508102730 58 285 5.0 7.0 0.00 0.00 0.00 57 1009.6
20260508102228 59 300 5.0 8.0 0.00 0.00 0.00 57 1009.8
20260508101725 59 282 5.0 7.0 0.00 0.00 0.00 57 1009.4
20260508101223 60 304 4.0 7.0 0.00 0.00 0.00 55 1009.6
20260508100720 60 246 2.0 5.0 0.00 0.00 0.00 54 1009.3
20260508100218 60 258 4.0 9.0 0.00 0.00 0.00 54 1009.1